Tracking 28799 objects as of 18-Apr-2024
HD Live streaming from Space Station
objects crossing your sky now

CZ-6A DEB

Track CZ-6A DEB now!
10-day predictions


NORAD ID: 56601
Int'l Code: 2022-151ADZ
Perigee: 708.2 km
Apogee: 875.0 km
Inclination: 98.6 °
Period: 100.5 minutes
Semi major axis: 7162 km
RCS: Unknown
Launch date: November 11, 2022
Source: People's Republic of China (PRC)
Launch site: Taiyaun Space Center, China (TSC)

Note: This is SATELLITE DEBRIS
Your satellite tracking list
Your tracking list is empty




NASA's NSSDC Master Catalog

Two Line Element Set (TLE):
1 56601U 22151ADZ 24107.98012044  .00001487  00000-0  52853-3 0  9997
2 56601  98.6402 120.2077 0116455 218.5015 140.7819 14.32169673 51314
Source of the keplerian elements: AFSPC